Fryeburg, ME

12:49 AM EDT on June 27, 2017 (GMT -0400)
Eastern Slopes Regional

Weather History for KIZG - October, 2012

Change the Weather History Date:

Wednesday, October 31, 2012

  Actual Average Record
Temperature  
Mean Temperature 55 °F -  
Max Temperature 63 °F 50 °F 69 °F (2005)
Min Temperature 48 °F 29 °F 12 °F (2002)
Degree Days  
Heating Degree Days 10    
Growing Degree Days 5 (Base 50)    
Moisture  
Dew Point 53 °F    
Average Humidity 90    
Maximum Humidity 100    
Minimum Humidity 62    
Precipitation  
Precipitation 0.11 in - - ()
Sea Level Pressure  
Sea Level Pressure 29.53 in    
Wind  
Wind Speed 5 mph (SE)    
Max Wind Speed 12 mph    
Max Gust Speed 16 mph    
Visibility 8 miles    
Events Rain    
Averages and records for this station are not official NWS values.
T = Trace of Precipitation, MM = Missing Value Source: NWS Daily Summary

Daily Weather History Graph

Daily Weather History Graph

Search for Another Location

Airport or City:

Trip Planner

Search our weather history database for the weather conditions in past years. The results will help you decide how hot, cold, wet, or windy it might be!

Date:

Astronomy

Oct. 31, 2012 Rise Set
Actual Time 7:19 AM EDT 5:34 PM EDT
Civil Twilight 6:49 AM EDT 6:04 PM EDT
Nautical Twilight 6:15 AM EDT 6:38 PM EDT
Astronomical Twilight 5:41 AM EDT 7:12 PM EDT
Moon 6:39 PM EDT (10/31) 9:01 AM EDT (10/31)
Length of Visible Light 11h 15m
Length of Day
10h 15m
Full, 97% of the Moon is Illuminated
Oct 31
Full
Nov 6
Last Quarter
Nov 13
New
Nov 20
First Quarter
Nov 28
Full

Hourly Weather History & Observations

Time (EDT) Temp. Dew Point Humidity Pressure Visibility Wind Dir Wind Speed Gust Speed Precip Events Conditions
12:02 AM 59.0 °F 59.0 °F 100% 29.58 in 3.0 mi Variable 3.5 mph - N/A   Overcast
12:28 AM 60.8 °F 59.0 °F 94% 29.57 in 7.0 mi SE 4.6 mph - N/A   Overcast
12:54 AM 60.1 °F 59.0 °F 96% 29.57 in 7.0 mi ESE 8.1 mph - N/A   Overcast
1:54 AM 59.0 °F 59.0 °F 100% 29.55 in 7.0 mi ESE 8.1 mph - N/A   Overcast
2:54 AM 59.0 °F 57.9 °F 96% 29.56 in 3.0 mi ESE 5.8 mph - 0.01 in   Overcast
3:03 AM 59.0 °F 57.2 °F 94% 29.55 in 2.5 mi ESE 4.6 mph - N/A   Overcast
3:08 AM 57.2 °F 57.2 °F 100% 29.56 in 3.0 mi SE 5.8 mph - N/A   Overcast
3:24 AM 57.2 °F 57.2 °F 100% 29.55 in 2.5 mi East 5.8 mph - 0.05 in Rain Light Rain
3:32 AM 57.2 °F 57.2 °F 100% 29.55 in 4.0 mi East 6.9 mph - 0.05 in   Overcast
3:54 AM 57.9 °F 57.9 °F 100% 29.55 in 6.0 mi ESE 4.6 mph - 0.05 in   Overcast
4:54 AM 57.9 °F 57.9 °F 100% 29.55 in 7.0 mi ESE 5.8 mph - 0.00 in   Overcast
5:07 AM 57.2 °F 57.2 °F 100% 29.54 in 10.0 mi East 5.8 mph - N/A   Mostly Cloudy
5:54 AM 57.0 °F 55.9 °F 96% 29.52 in 10.0 mi East 3.5 mph - N/A   Overcast
6:45 AM 57.2 °F 57.2 °F 100% 29.52 in 8.0 mi East 3.5 mph - 0.01 in   Overcast
6:54 AM 57.0 °F 55.9 °F 96% 29.53 in 9.0 mi East 3.5 mph - 0.01 in   Overcast
7:05 AM 57.2 °F 55.4 °F 94% 29.52 in 7.0 mi Calm Calm - 0.00 in Rain Light Rain
7:16 AM 57.2 °F 55.4 °F 94% 29.51 in 7.0 mi East 3.5 mph - 0.00 in   Overcast
7:44 AM 57.2 °F 55.4 °F 94% 29.51 in 8.0 mi Calm Calm - 0.00 in   Overcast
7:54 AM 57.0 °F 57.0 °F 100% 29.52 in 7.0 mi Calm Calm - 0.00 in   Overcast
8:03 AM 57.2 °F 57.2 °F 100% 29.51 in 8.0 mi Calm Calm - N/A   Overcast
8:39 AM 57.2 °F 57.2 °F 100% 29.51 in 10.0 mi Calm Calm - N/A   Overcast
8:54 AM 57.9 °F 57.0 °F 97% 29.52 in 10.0 mi SSE 4.6 mph - N/A   Overcast
9:40 AM 57.2 °F 55.4 °F 94% 29.52 in 10.0 mi SE 8.1 mph - N/A   Overcast
9:54 AM 57.9 °F 55.0 °F 90% 29.53 in 10.0 mi SE 8.1 mph - N/A   Overcast
10:03 AM 59.0 °F 55.4 °F 88% 29.52 in 10.0 mi SE 9.2 mph - N/A   Overcast
10:54 AM 60.1 °F 54.0 °F 80% 29.52 in 10.0 mi SSE 8.1 mph - 0.00 in   Mostly Cloudy
11:01 AM 60.8 °F 53.6 °F 77% 29.52 in 10.0 mi South 8.1 mph - N/A   Overcast
11:25 AM 60.8 °F 53.6 °F 77% 29.52 in 10.0 mi South 11.5 mph 16.1 mph N/A   Mostly Cloudy
11:54 AM 61.0 °F 51.1 °F 70% 29.52 in 10.0 mi South 9.2 mph 16.1 mph N/A   Mostly Cloudy
12:54 PM 59.0 °F 48.9 °F 69% 29.51 in 10.0 mi South 5.8 mph - N/A   Overcast
1:54 PM 62.1 °F 50.0 °F 65% 29.49 in 10.0 mi SE 6.9 mph - N/A   Overcast
2:54 PM 60.1 °F 46.9 °F 62% 29.49 in 10.0 mi Variable 5.8 mph - N/A   Overcast
3:54 PM 54.0 °F 48.9 °F 83% 29.51 in 10.0 mi South 6.9 mph - 0.01 in Rain Light Rain
4:54 PM 52.0 °F 48.9 °F 89% 29.50 in 10.0 mi Calm Calm - 0.03 in   Overcast
5:54 PM 52.0 °F 48.9 °F 89% 29.51 in 10.0 mi SSE 3.5 mph - N/A   Overcast
6:54 PM 51.1 °F 46.9 °F 86% 29.52 in 10.0 mi Calm Calm - N/A   Overcast
7:54 PM 51.1 °F 46.0 °F 83% 29.53 in 10.0 mi South 4.6 mph - N/A   Overcast
8:40 PM 50.0 °F 46.4 °F 87% 29.52 in 10.0 mi Calm Calm - N/A   Overcast
8:47 PM 50.0 °F 46.4 °F 87% 29.53 in 10.0 mi South 3.5 mph - N/A   Overcast
8:54 PM 51.1 °F 46.0 °F 83% 29.53 in 10.0 mi Calm Calm - N/A   Overcast
9:54 PM 48.9 °F 45.0 °F 86% 29.53 in 10.0 mi SSW 3.5 mph - N/A   Overcast
10:54 PM 50.0 °F 45.0 °F 83% 29.53 in 10.0 mi Calm Calm - N/A   Overcast
11:54 PM 50.0 °F 43.0 °F 77% 29.53 in 10.0 mi Calm Calm - N/A   Overcast